Weather History for KRST - November, 2013

Change the Weather History Date:

Thursday, November 21, 2013

  Actual Average Record
Temperature  
Mean Temperature 31 °F 31 °F  
Max Temperature 37 °F 38 °F 70 °F (2012)
Min Temperature 24 °F 23 °F -8 °F (1964)
Degree Days  
Heating Degree Days 34 34  
Month to date heating degree days 617 601  
Since 1 July heating degree days 1300 1337  
Cooling Degree Days 0 0  
Month to date cooling degree days 0 0  
Year to date cooling degree days 656 585  
Moisture  
Dew Point 28 °F    
Average Humidity 91    
Maximum Humidity 100    
Minimum Humidity 81    
Precipitation  
Precipitation 0.07 in 0.06 in 0.66 in (1979)
Month to date precipitation 1.74 1.37  
Year to date precipitation 40.64 31.25  
Snow  
Snow 0.50 in 0.30 in 3.10 in (1989)
Month to date snowfall 1.0 3.4  
Since 1 July snowfall 1.0 4.2  
Snow Depth 0.00 in    
Sea Level Pressure  
Sea Level Pressure 30.27 in    
Wind  
Wind Speed 12 mph (NW)    
Max Wind Speed 23 mph    
Max Gust Speed 30 mph    
Visibility 3 miles    
Events Fog , Rain , Snow    
T = Trace of Precipitation, MM = Missing Value Source: NWS Daily Summary

Daily Weather History Graph

Daily Weather History Graph

Search for Another Location

Airport or City:

Trip Planner

Search our weather history database for the weather conditions in past years. The results will help you decide how hot, cold, wet, or windy it might be!

Date:

Astronomy

Nov. 21, 2013 Rise Set
Actual Time 7:12 AM CST 4:38 PM CST
Civil Twilight 6:41 AM CST 5:10 PM CST
Nautical Twilight 6:05 AM CST 5:45 PM CST
Astronomical Twilight 5:31 AM CST 6:19 PM CST
Moon 8:17 PM CST (11/21) 10:18 AM CST (11/21)
Length of Visible Light 10h 29m
Length of Day
9h 25m
Waning Gibbous, 85% of the Moon is Illuminated
Nov 21
Waning Gibbous
Nov 25
Last Quarter
Dec 2
New
Dec 9
First Quarter
Dec 17
Full

Hourly Weather History & Observations

Time (CST) Temp. Windchill Dew Point Humidity Pressure Visibility Wind Dir Wind Speed Gust Speed Precip Events Conditions
12:54 AM 36.0 °F 30.3 °F 34.0 °F 93% 30.08 in 0.5 mi South 6.9 mph - N/A Fog Fog
1:15 AM 35.6 °F 30.7 °F 33.8 °F 93% 30.05 in 0.2 mi South 5.8 mph - N/A Fog Fog
1:54 AM 36.0 °F 30.3 °F 34.0 °F 93% 30.11 in 0.2 mi South 6.9 mph - N/A Fog Fog
2:54 AM 36.0 °F 33.3 °F 35.1 °F 97% 30.12 in 0.2 mi South 3.5 mph - N/A Fog Fog
3:08 AM 35.6 °F 32.8 °F 35.6 °F 100% 30.07 in 0.2 mi South 3.5 mph - N/A Fog Fog
3:54 AM 36.0 °F 32.1 °F 35.1 °F 97% 30.12 in 0.2 mi SSW 4.6 mph - N/A Fog Fog
4:28 AM 35.6 °F 32.8 °F 35.6 °F 100% 30.07 in 0.2 mi SW 3.5 mph - N/A Fog Fog
4:54 AM 36.0 °F - 35.1 °F 97% 30.13 in 0.2 mi Calm Calm - N/A Fog Fog
5:54 AM 36.0 °F 32.1 °F 35.1 °F 97% 30.14 in 0.2 mi WNW 4.6 mph - N/A Fog Fog
6:52 AM 37.4 °F 32.8 °F 35.6 °F 93% 30.13 in 0.5 mi West 5.8 mph - N/A Fog Fog
6:54 AM 37.0 °F 31.6 °F 35.1 °F 93% 30.17 in 0.5 mi West 6.9 mph - N/A Fog Fog
7:54 AM 37.0 °F 32.4 °F 35.1 °F 93% 30.19 in 0.5 mi NW 5.8 mph - N/A Fog Fog
8:15 AM 37.4 °F 33.8 °F 35.6 °F 93% 30.15 in 0.2 mi WNW 4.6 mph - N/A Fog Fog
8:54 AM 36.0 °F 28.0 °F 34.0 °F 93% 30.20 in 0.2 mi NW 11.5 mph - N/A Fog Fog
9:03 AM 35.6 °F 27.1 °F 33.8 °F 93% 30.16 in 0.5 mi WNW 12.7 mph - N/A Fog Fog
9:18 AM 33.8 °F 24.8 °F 33.8 °F 100% 30.16 in 0.2 mi WNW 12.7 mph - N/A Fog Fog
9:27 AM 33.8 °F 25.8 °F 32.0 °F 93% 30.17 in 0.5 mi WNW 10.4 mph - N/A Fog Fog
9:54 AM 32.0 °F 23.0 °F 30.0 °F 92% 30.25 in 0.8 mi WNW 11.5 mph - 0.00 in   Overcast
10:27 AM 32.0 °F 22.5 °F 30.2 °F 93% 30.20 in 0.2 mi WNW 12.7 mph - 0.00 in Fog Fog
10:40 AM 32.0 °F 23.0 °F 30.2 °F 93% 30.20 in 0.2 mi WNW 11.5 mph - 0.00 in Fog Fog
10:54 AM 30.9 °F 21.2 °F 30.0 °F 96% 30.25 in 0.2 mi NW 12.7 mph - 0.00 in Fog Light Freezing Fog
11:54 AM 30.9 °F 20.7 °F 30.0 °F 96% 30.26 in 0.2 mi NW 13.8 mph - N/A Fog Light Freezing Fog
11:57 AM 30.2 °F 19.3 °F 30.2 °F 100% 30.21 in 0.2 mi NW 15.0 mph - 0.00 in Fog , Rain Light Freezing Rain
12:06 PM 32.0 °F 20.8 °F 30.2 °F 93% 30.21 in 0.2 mi NW 17.3 mph - 0.00 in Fog , Rain Light Freezing Rain
12:32 PM 30.2 °F 18.9 °F 30.2 °F 100% 30.22 in 0.5 mi NW 16.1 mph - 0.00 in Rain Light Freezing Rain
12:54 PM 30.9 °F 19.8 °F 28.9 °F 92% 30.27 in 0.8 mi NW 16.1 mph - 0.00 in Rain Light Freezing Rain
1:06 PM 30.2 °F 18.5 °F 28.4 °F 93% 30.22 in 1.2 mi NNW 17.3 mph - 0.00 in Rain Light Freezing Rain
1:13 PM 30.2 °F 18.9 °F 28.4 °F 93% 30.22 in 1.2 mi NNW 16.1 mph - 0.00 in Rain Light Freezing Rain
1:23 PM 30.2 °F 18.9 °F 28.4 °F 93% 30.22 in 1.5 mi NNW 16.1 mph - 0.00 in Rain Light Freezing Rain
1:31 PM 30.2 °F 19.3 °F 28.4 °F 93% 30.22 in 1.5 mi NNW 15.0 mph - 0.00 in   Light Freezing Drizzle
1:54 PM 30.9 °F 19.1 °F 28.9 °F 92% 30.27 in 2.0 mi NNW 18.4 mph - 0.00 in   Light Freezing Drizzle
2:54 PM 30.9 °F 19.1 °F 28.9 °F 92% 30.28 in 3.0 mi NNW 18.4 mph - 0.00 in   Light Freezing Drizzle
3:40 PM 30.2 °F 18.9 °F 28.4 °F 93% 30.24 in 3.0 mi NNW 16.1 mph - 0.00 in   Overcast
3:54 PM 30.0 °F 19.1 °F 28.0 °F 92% 30.30 in 6.0 mi NNW 15.0 mph 23.0 mph 0.00 in   Overcast
4:52 PM 28.4 °F 17.0 °F 26.6 °F 93% 30.28 in 7.0 mi NNW 15.0 mph - 0.00 in Rain Light Freezing Rain
4:54 PM 28.9 °F 17.7 °F 27.0 °F 92% 30.32 in 7.0 mi North 15.0 mph - 0.00 in Rain Light Freezing Rain
5:02 PM 28.4 °F 15.8 °F 26.6 °F 93% 30.28 in 7.0 mi North 18.4 mph - 0.00 in Rain Light Freezing Rain
5:11 PM 28.4 °F 16.6 °F 26.6 °F 93% 30.28 in 7.0 mi North 16.1 mph - 0.00 in   Overcast
5:31 PM 28.4 °F 15.4 °F 26.6 °F 93% 30.29 in 8.0 mi NNW 19.6 mph - 0.00 in   Overcast
5:54 PM 28.0 °F 16.1 °F 25.0 °F 88% 30.36 in 8.0 mi NNW 16.1 mph - 0.00 in   Overcast
6:38 PM 28.4 °F 17.0 °F 24.8 °F 86% 30.33 in 10.0 mi North 15.0 mph 25.3 mph N/A   Overcast
6:54 PM 27.0 °F 13.9 °F 24.1 °F 89% 30.38 in 9.0 mi North 18.4 mph - N/A   Overcast
7:30 PM 26.6 °F 13.8 °F 24.8 °F 93% 30.33 in 6.0 mi North 17.3 mph - N/A Rain Light Freezing Rain
7:48 PM 26.6 °F 13.1 °F 23.0 °F 86% 30.34 in 6.0 mi North 19.6 mph - N/A Rain Light Freezing Rain
7:54 PM 27.0 °F 14.3 °F 23.0 °F 85% 30.40 in 6.0 mi North 17.3 mph 25.3 mph N/A Rain Light Freezing Rain
7:58 PM 26.6 °F 13.4 °F 23.0 °F 86% 30.35 in 6.0 mi North 18.4 mph 25.3 mph N/A   Overcast
8:54 PM 27.0 °F 14.3 °F 21.9 °F 81% 30.41 in 9.0 mi North 17.3 mph - N/A Snow Light Snow
9:09 PM 26.6 °F 13.1 °F 21.2 °F 80% 30.36 in 9.0 mi North 19.6 mph - N/A Snow Light Snow
9:54 PM 26.1 °F 13.1 °F 21.9 °F 84% 30.43 in 4.0 mi North 17.3 mph 25.3 mph N/A Snow Light Snow
10:11 PM 26.6 °F 13.8 °F 21.2 °F 80% 30.37 in 2.5 mi North 17.3 mph - N/A Snow Light Snow
10:21 PM 26.6 °F 13.8 °F 21.2 °F 80% 30.38 in 2.5 mi North 17.3 mph - N/A Snow Light Snow
10:30 PM 26.6 °F 13.8 °F 21.2 °F 80% 30.39 in 3.0 mi North 17.3 mph - N/A Snow Light Snow
10:42 PM 24.8 °F 11.5 °F 21.2 °F 86% 30.39 in 2.0 mi North 17.3 mph - N/A Snow Light Snow
10:51 PM 24.8 °F 10.7 °F 21.2 °F 86% 30.39 in 1.8 mi North 19.6 mph 25.3 mph N/A Snow Light Snow
10:54 PM 25.0 °F 12.2 °F 21.0 °F 85% 30.45 in 1.5 mi North 16.1 mph 25.3 mph N/A Snow Light Snow
11:06 PM 24.8 °F 12.9 °F 21.2 °F 86% 30.40 in 2.0 mi North 13.8 mph - 0.01 in Snow Light Snow
11:18 PM 24.8 °F 10.7 °F 21.2 °F 86% 30.41 in 3.0 mi NNW 19.6 mph - 0.01 in Snow Light Snow
11:42 PM 24.8 °F 11.1 °F 21.2 °F 86% 30.42 in 1.8 mi NNW 18.4 mph - 0.01 in Snow Light Snow
11:54 PM 24.1 °F 11.0 °F 21.0 °F 88% 30.49 in 1.8 mi NNW 16.1 mph 29.9 mph 0.01 in Snow Light Snow